Year,Month,Day,Hour,Minute,Value (Times are PST for windspeed in km/hr)
2007,05,06,00,00,0.00
2007,05,06,00,01,0.00
2007,05,06,00,02,0.00
2007,05,06,00,03,0.00
2007,05,06,00,04,0.00
2007,05,06,00,05,0.40
2007,05,06,00,06,0.00
2007,05,06,00,07,0.00
2007,05,06,00,08,0.10
2007,05,06,00,09,1.50
2007,05,06,00,10,1.30
2007,05,06,00,11,2.80
2007,05,06,00,12,1.70
2007,05,06,00,13,3.40
2007,05,06,00,14,2.00
2007,05,06,00,15,0.30
2007,05,06,00,16,0.20
2007,05,06,00,17,0.10
2007,05,06,00,18,2.80
2007,05,06,00,19,3.40
2007,05,06,00,20,2.20
2007,05,06,00,21,0.50
2007,05,06,00,22,0.70
2007,05,06,00,23,0.90
2007,05,06,00,24,1.00
2007,05,06,00,25,2.90
2007,05,06,00,26,2.50
2007,05,06,00,27,1.90
2007,05,06,00,28,0.30
2007,05,06,00,29,2.70
2007,05,06,00,30,0.00
2007,05,06,00,31,0.00
2007,05,06,00,32,0.00
2007,05,06,00,33,0.00
2007,05,06,00,34,0.40
2007,05,06,00,35,1.70
2007,05,06,00,36,1.30
2007,05,06,00,37,0.90
2007,05,06,00,38,0.10
2007,05,06,00,39,0.10
2007,05,06,00,40,1.00
2007,05,06,00,41,0.20
2007,05,06,00,42,0.90
2007,05,06,00,43,1.30
2007,05,06,00,44,2.10
2007,05,06,00,45,3.70
2007,05,06,00,46,0.30
2007,05,06,00,47,2.20
2007,05,06,00,48,0.10
2007,05,06,00,49,1.90
2007,05,06,00,50,4.40
2007,05,06,00,51,4.60
2007,05,06,00,52,4.10
2007,05,06,00,53,3.50
2007,05,06,00,54,3.00
2007,05,06,00,55,3.30
2007,05,06,00,56,3.60
2007,05,06,00,57,0.60
2007,05,06,00,58,0.30
2007,05,06,00,59,0.00
2007,05,06,01,00,0.00
2007,05,06,01,01,0.10
2007,05,06,01,02,0.00
2007,05,06,01,03,0.00
2007,05,06,01,04,0.00
2007,05,06,01,05,0.00
2007,05,06,01,06,0.00
2007,05,06,01,07,0.00
2007,05,06,01,08,0.00
2007,05,06,01,09,0.00
2007,05,06,01,10,0.00
2007,05,06,01,11,0.00
2007,05,06,01,12,0.10
2007,05,06,01,13,0.00
2007,05,06,01,14,0.00
2007,05,06,01,15,0.10
2007,05,06,01,16,0.20
2007,05,06,01,17,0.10
2007,05,06,01,18,0.40
2007,05,06,01,19,1.70
2007,05,06,01,20,1.50
2007,05,06,01,21,0.10
2007,05,06,01,22,0.30
2007,05,06,01,23,0.40
2007,05,06,01,24,0.40
2007,05,06,01,25,0.00
2007,05,06,01,26,0.00
2007,05,06,01,27,0.00
2007,05,06,01,28,0.00
2007,05,06,01,29,0.90
2007,05,06,01,30,0.00
2007,05,06,01,31,2.30
2007,05,06,01,32,2.90
2007,05,06,01,33,3.80
2007,05,06,01,34,1.90
2007,05,06,01,35,3.00
2007,05,06,01,36,2.00
2007,05,06,01,37,1.50
2007,05,06,01,38,1.30
2007,05,06,01,39,0.30
2007,05,06,01,40,0.80
2007,05,06,01,41,0.10
2007,05,06,01,42,0.40
2007,05,06,01,43,1.20
2007,05,06,01,44,0.30
2007,05,06,01,45,0.00
2007,05,06,01,46,0.10
2007,05,06,01,47,0.00
2007,05,06,01,48,0.10
2007,05,06,01,49,0.20
2007,05,06,01,50,1.60
2007,05,06,01,51,1.70
2007,05,06,01,52,2.40
2007,05,06,01,53,1.40
2007,05,06,01,54,1.90
2007,05,06,01,55,3.90
2007,05,06,01,56,2.70
2007,05,06,01,57,3.30
2007,05,06,01,58,2.50
2007,05,06,01,59,2.80
2007,05,06,02,00,2.20
2007,05,06,02,01,2.10
2007,05,06,02,02,2.10
2007,05,06,02,03,4.40
2007,05,06,02,04,1.40
2007,05,06,02,05,0.30
2007,05,06,02,06,2.20
2007,05,06,02,07,0.10
2007,05,06,02,08,2.20
2007,05,06,02,09,0.00
2007,05,06,02,10,0.00
2007,05,06,02,11,0.10
2007,05,06,02,12,2.20
2007,05,06,02,13,1.10
2007,05,06,02,14,0.00
2007,05,06,02,15,0.10
2007,05,06,02,16,0.00
2007,05,06,02,17,0.00
2007,05,06,02,18,0.00
2007,05,06,02,19,0.00
2007,05,06,02,20,0.50
2007,05,06,02,21,1.80
2007,05,06,02,22,0.10
2007,05,06,02,23,0.00
2007,05,06,02,24,0.00
2007,05,06,02,25,0.00
2007,05,06,02,26,0.00
2007,05,06,02,27,1.40
2007,05,06,02,28,2.60
2007,05,06,02,29,0.90
2007,05,06,02,30,2.10
2007,05,06,02,31,2.80
2007,05,06,02,32,1.80
2007,05,06,02,33,4.00
2007,05,06,02,34,2.00
2007,05,06,02,35,3.90
2007,05,06,02,36,3.40
2007,05,06,02,37,4.20
2007,05,06,02,38,4.40
2007,05,06,02,39,0.40
2007,05,06,02,40,0.30
2007,05,06,02,41,2.70
2007,05,06,02,42,3.00
2007,05,06,02,43,1.60
2007,05,06,02,44,1.50
2007,05,06,02,45,3.50
2007,05,06,02,46,0.70
2007,05,06,02,47,0.30
2007,05,06,02,48,2.00
2007,05,06,02,49,1.50
2007,05,06,02,50,0.70
2007,05,06,02,51,1.40
2007,05,06,02,52,0.60
2007,05,06,02,53,3.90
2007,05,06,02,54,4.40
2007,05,06,02,55,4.60
2007,05,06,02,56,4.30
2007,05,06,02,57,4.30
2007,05,06,02,58,5.00
2007,05,06,02,59,4.20
2007,05,06,03,00,2.80
2007,05,06,03,01,4.00
2007,05,06,03,02,4.40
2007,05,06,03,03,3.70
2007,05,06,03,04,4.00
2007,05,06,03,05,5.00
2007,05,06,03,06,4.80
2007,05,06,03,07,3.30
2007,05,06,03,08,0.80
2007,05,06,03,09,2.10
2007,05,06,03,10,4.30
2007,05,06,03,11,5.10
2007,05,06,03,12,4.30
2007,05,06,03,13,4.10
2007,05,06,03,14,1.50
2007,05,06,03,15,2.70
2007,05,06,03,16,4.90
2007,05,06,03,17,4.90
2007,05,06,03,18,3.30
2007,05,06,03,19,3.50
2007,05,06,03,20,1.80
2007,05,06,03,21,3.00
2007,05,06,03,22,2.00
2007,05,06,03,23,0.90
2007,05,06,03,24,2.30
2007,05,06,03,25,2.50
2007,05,06,03,26,3.20
2007,05,06,03,27,1.70
2007,05,06,03,28,3.00
2007,05,06,03,29,4.00
2007,05,06,03,30,4.70
2007,05,06,03,31,4.00
2007,05,06,03,32,4.90
2007,05,06,03,33,4.50
2007,05,06,03,34,3.50
2007,05,06,03,35,4.20
2007,05,06,03,36,5.00
2007,05,06,03,37,4.90
2007,05,06,03,38,5.80
2007,05,06,03,39,5.40
2007,05,06,03,40,3.10
2007,05,06,03,41,2.50
2007,05,06,03,42,5.00
2007,05,06,03,43,3.40
2007,05,06,03,44,3.20
2007,05,06,03,45,3.40
2007,05,06,03,46,5.40
2007,05,06,03,47,2.10
2007,05,06,03,48,0.50
2007,05,06,03,49,2.60
2007,05,06,03,50,2.00
2007,05,06,03,51,3.10
2007,05,06,03,52,4.30
2007,05,06,03,53,3.90
2007,05,06,03,54,3.80
2007,05,06,03,55,3.90
2007,05,06,03,56,4.50
2007,05,06,03,57,4.30
2007,05,06,03,58,3.70
2007,05,06,03,59,4.40
2007,05,06,04,00,3.10
2007,05,06,04,01,2.70
2007,05,06,04,02,2.80
2007,05,06,04,03,3.80
2007,05,06,04,04,3.50
2007,05,06,04,05,2.90
2007,05,06,04,06,3.70
2007,05,06,04,07,4.80
2007,05,06,04,08,4.50
2007,05,06,04,09,4.50
2007,05,06,04,10,4.10
2007,05,06,04,11,3.90
2007,05,06,04,12,4.40
2007,05,06,04,13,4.60
2007,05,06,04,14,3.70
2007,05,06,04,15,3.40
2007,05,06,04,16,3.10
2007,05,06,04,17,1.90
2007,05,06,04,18,0.20
2007,05,06,04,19,0.10
2007,05,06,04,20,1.30
2007,05,06,04,21,2.90
2007,05,06,04,22,0.60
2007,05,06,04,23,0.10
2007,05,06,04,24,0.20
2007,05,06,04,25,0.00
2007,05,06,04,26,0.00
2007,05,06,04,27,0.00
2007,05,06,04,28,0.00
2007,05,06,04,29,0.10
2007,05,06,04,30,0.00
2007,05,06,04,31,0.00
2007,05,06,04,32,0.00
2007,05,06,04,33,0.00
2007,05,06,04,34,0.00
2007,05,06,04,35,0.00
2007,05,06,04,36,0.00
2007,05,06,04,37,0.00
2007,05,06,04,38,0.00
2007,05,06,04,39,0.00
2007,05,06,04,40,0.10
2007,05,06,04,41,0.00
2007,05,06,04,42,0.00
2007,05,06,04,43,0.00
2007,05,06,04,44,0.00
2007,05,06,04,45,0.10
2007,05,06,04,46,0.00
2007,05,06,04,47,0.50
2007,05,06,04,48,0.00
2007,05,06,04,49,0.40
2007,05,06,04,50,0.00
2007,05,06,04,51,0.30
2007,05,06,04,52,0.50
2007,05,06,04,53,0.00
2007,05,06,04,54,1.00
2007,05,06,04,55,1.30
2007,05,06,04,56,0.40
2007,05,06,04,57,0.00
2007,05,06,04,58,0.00
2007,05,06,04,59,0.00
2007,05,06,05,00,0.00
2007,05,06,05,01,0.00
2007,05,06,05,02,0.00
2007,05,06,05,03,0.10
2007,05,06,05,04,0.00
2007,05,06,05,05,0.00
2007,05,06,05,06,0.00
2007,05,06,05,07,0.00
2007,05,06,05,08,0.00
2007,05,06,05,09,0.00
2007,05,06,05,10,0.50
2007,05,06,05,11,0.10
2007,05,06,05,12,0.00
2007,05,06,05,13,0.00
2007,05,06,05,14,0.00
2007,05,06,05,15,0.00
2007,05,06,05,16,0.00
2007,05,06,05,17,0.00
2007,05,06,05,18,0.00
2007,05,06,05,19,0.00
2007,05,06,05,20,0.00
2007,05,06,05,21,0.20
2007,05,06,05,22,1.30
2007,05,06,05,23,2.10
2007,05,06,05,24,1.20
2007,05,06,05,25,0.10
2007,05,06,05,26,0.00
2007,05,06,05,27,0.00
2007,05,06,05,28,0.00
2007,05,06,05,29,0.00
2007,05,06,05,30,0.00
2007,05,06,05,31,0.00
2007,05,06,05,32,0.00
2007,05,06,05,33,0.00
2007,05,06,05,34,0.00
2007,05,06,05,35,0.00
2007,05,06,05,36,0.00
2007,05,06,05,37,0.00
2007,05,06,05,38,0.00
2007,05,06,05,39,0.00
2007,05,06,05,40,0.00
2007,05,06,05,41,0.00
2007,05,06,05,42,0.00
2007,05,06,05,43,0.00
2007,05,06,05,44,0.00
2007,05,06,05,45,0.00
2007,05,06,05,46,0.00
2007,05,06,05,47,0.00
2007,05,06,05,48,0.00
2007,05,06,05,49,0.00
2007,05,06,05,50,0.00
2007,05,06,05,51,1.20
2007,05,06,05,52,0.90
2007,05,06,05,53,0.00
2007,05,06,05,54,1.00
2007,05,06,05,55,1.70
2007,05,06,05,56,1.90
2007,05,06,05,57,1.50
2007,05,06,05,58,1.50
2007,05,06,05,59,4.00
2007,05,06,06,00,2.90
2007,05,06,06,01,2.80
2007,05,06,06,02,6.60
2007,05,06,06,03,6.40
2007,05,06,06,04,6.40
2007,05,06,06,05,6.10
2007,05,06,06,06,4.80
2007,05,06,06,07,2.30
2007,05,06,06,08,1.40
2007,05,06,06,09,2.10
2007,05,06,06,10,3.40
2007,05,06,06,11,3.40
2007,05,06,06,12,1.80
2007,05,06,06,13,2.60
2007,05,06,06,14,5.20
2007,05,06,06,15,4.70
2007,05,06,06,16,2.60
2007,05,06,06,17,1.80
2007,05,06,06,18,3.70
2007,05,06,06,19,2.20
2007,05,06,06,20,2.20
2007,05,06,06,21,1.30
2007,05,06,06,22,1.60
2007,05,06,06,23,0.80
2007,05,06,06,24,1.80
2007,05,06,06,25,0.80
2007,05,06,06,26,0.20
2007,05,06,06,27,0.20
2007,05,06,06,28,0.80
2007,05,06,06,29,1.60
2007,05,06,06,30,2.90
2007,05,06,06,31,3.50
2007,05,06,06,32,3.00
2007,05,06,06,33,4.60
2007,05,06,06,34,3.20
2007,05,06,06,35,1.50
2007,05,06,06,36,1.60
2007,05,06,06,37,1.20
2007,05,06,06,38,0.00
2007,05,06,06,39,0.20
2007,05,06,06,40,0.10
2007,05,06,06,41,1.60
2007,05,06,06,42,0.40
2007,05,06,06,43,2.40
2007,05,06,06,44,3.80
2007,05,06,06,45,4.50
2007,05,06,06,46,1.20
2007,05,06,06,47,3.30
2007,05,06,06,48,4.90
2007,05,06,06,49,6.70
2007,05,06,06,50,5.30
2007,05,06,06,51,4.60
2007,05,06,06,52,3.90
2007,05,06,06,53,4.30
2007,05,06,06,54,4.30
2007,05,06,06,55,4.30
2007,05,06,06,56,4.40
2007,05,06,06,57,4.20
2007,05,06,06,58,2.50
2007,05,06,06,59,3.20
2007,05,06,07,00,2.10
2007,05,06,07,01,2.80
2007,05,06,07,02,5.00
2007,05,06,07,03,4.90
2007,05,06,07,04,5.20
2007,05,06,07,05,5.30
2007,05,06,07,06,3.60
2007,05,06,07,07,2.10
2007,05,06,07,08,2.70
2007,05,06,07,09,0.60
2007,05,06,07,10,0.10
2007,05,06,07,11,0.00
2007,05,06,07,12,0.00
2007,05,06,07,13,0.00
2007,05,06,07,14,0.20
2007,05,06,07,15,0.00
2007,05,06,07,16,0.10
2007,05,06,07,17,1.10
2007,05,06,07,18,3.70
2007,05,06,07,19,2.50
2007,05,06,07,20,0.00
2007,05,06,07,21,0.10
2007,05,06,07,22,2.00
2007,05,06,07,23,1.80
2007,05,06,07,24,0.10
2007,05,06,07,25,2.90
2007,05,06,07,26,2.30
2007,05,06,07,27,2.80
2007,05,06,07,28,3.50
2007,05,06,07,29,3.10
2007,05,06,07,30,1.30
2007,05,06,07,31,2.90
2007,05,06,07,32,3.60
2007,05,06,07,33,0.40
2007,05,06,07,34,3.50
2007,05,06,07,35,0.50
2007,05,06,07,36,0.00
2007,05,06,07,37,0.30
2007,05,06,07,38,1.00
2007,05,06,07,39,1.80
2007,05,06,07,40,0.30
2007,05,06,07,41,0.80
2007,05,06,07,42,0.50
2007,05,06,07,43,0.10
2007,05,06,07,44,0.30
2007,05,06,07,45,0.20
2007,05,06,07,46,0.00
2007,05,06,07,47,1.90
2007,05,06,07,48,2.10
2007,05,06,07,49,1.50
2007,05,06,07,50,1.30
2007,05,06,07,51,1.70
2007,05,06,07,52,2.40
2007,05,06,07,53,3.50
2007,05,06,07,54,3.70
2007,05,06,07,55,2.10
2007,05,06,07,56,0.60
2007,05,06,07,57,0.10
2007,05,06,07,58,1.70
2007,05,06,07,59,3.10
2007,05,06,08,00,2.70
2007,05,06,08,01,2.10
2007,05,06,08,02,2.40
2007,05,06,08,03,1.50
2007,05,06,08,04,1.30
2007,05,06,08,05,2.40
2007,05,06,08,06,2.60
2007,05,06,08,07,0.10
2007,05,06,08,08,0.30
2007,05,06,08,09,1.20
2007,05,06,08,10,0.50
2007,05,06,08,11,0.60
2007,05,06,08,12,0.60
2007,05,06,08,13,0.10
2007,05,06,08,14,0.00
2007,05,06,08,15,0.40
2007,05,06,08,16,2.20
2007,05,06,08,17,1.20
2007,05,06,08,18,1.40
2007,05,06,08,19,2.00
2007,05,06,08,20,0.00
2007,05,06,08,21,0.00
2007,05,06,08,22,0.00
2007,05,06,08,23,0.10
2007,05,06,08,24,0.80
2007,05,06,08,25,0.40
2007,05,06,08,26,2.20
2007,05,06,08,27,3.90
2007,05,06,08,28,3.50
2007,05,06,08,29,0.20
2007,05,06,08,30,0.00
2007,05,06,08,31,0.00
2007,05,06,08,32,0.90
2007,05,06,08,33,1.10
2007,05,06,08,34,0.40
2007,05,06,08,35,3.80
2007,05,06,08,36,1.30
2007,05,06,08,37,0.10
2007,05,06,08,38,2.90
2007,05,06,08,39,3.60
2007,05,06,08,40,1.50
2007,05,06,08,41,1.50
2007,05,06,08,42,0.10
2007,05,06,08,43,0.60
2007,05,06,08,44,1.30
2007,05,06,08,45,0.10
2007,05,06,08,46,0.00
2007,05,06,08,47,0.10
2007,05,06,08,48,0.00
2007,05,06,08,49,0.00
2007,05,06,08,50,0.00
2007,05,06,08,51,0.30
2007,05,06,08,52,0.10
2007,05,06,08,53,0.90
2007,05,06,08,54,0.10
2007,05,06,08,55,0.00
2007,05,06,08,56,0.00
2007,05,06,08,57,0.10
2007,05,06,08,58,0.00
2007,05,06,08,59,0.20
2007,05,06,09,00,3.30
2007,05,06,09,01,0.20
2007,05,06,09,02,0.10
2007,05,06,09,03,0.90
2007,05,06,09,04,0.10
2007,05,06,09,05,0.00
2007,05,06,09,06,0.10
2007,05,06,09,07,0.80
2007,05,06,09,08,3.10
2007,05,06,09,09,2.50
2007,05,06,09,10,0.00
2007,05,06,09,11,0.40
2007,05,06,09,12,0.20
2007,05,06,09,13,0.00
2007,05,06,09,14,0.00
2007,05,06,09,15,0.00
2007,05,06,09,16,0.40
2007,05,06,09,17,0.00
2007,05,06,09,18,0.00
2007,05,06,09,19,0.00
2007,05,06,09,20,0.30
2007,05,06,09,21,2.20
2007,05,06,09,22,3.10
2007,05,06,09,23,2.40
2007,05,06,09,24,2.30
2007,05,06,09,25,1.60
2007,05,06,09,26,0.10
2007,05,06,09,27,0.00
2007,05,06,09,28,0.50
2007,05,06,09,29,0.00
2007,05,06,09,30,0.00
2007,05,06,09,31,0.00
2007,05,06,09,32,0.00
2007,05,06,09,33,0.00
2007,05,06,09,34,0.50
2007,05,06,09,35,0.00
2007,05,06,09,36,0.10
2007,05,06,09,37,0.20
2007,05,06,09,38,0.00
2007,05,06,09,39,0.00
2007,05,06,09,40,0.00
2007,05,06,09,41,0.10
2007,05,06,09,42,0.10
2007,05,06,09,43,0.00
2007,05,06,09,44,0.00
2007,05,06,09,45,3.60
2007,05,06,09,46,0.90
2007,05,06,09,47,0.80
2007,05,06,09,48,0.00
2007,05,06,09,49,0.00
2007,05,06,09,50,0.00
2007,05,06,09,51,0.10
2007,05,06,09,52,0.10
2007,05,06,09,53,0.10
2007,05,06,09,54,0.20
2007,05,06,09,55,0.20
2007,05,06,09,56,0.30
2007,05,06,09,57,0.00
2007,05,06,09,58,0.10
2007,05,06,09,59,0.10
2007,05,06,10,00,0.00
2007,05,06,10,01,0.00
2007,05,06,10,02,0.00
2007,05,06,10,03,0.20
2007,05,06,10,04,0.00
2007,05,06,10,05,0.00
2007,05,06,10,06,0.00
2007,05,06,10,07,1.00
2007,05,06,10,08,0.20
2007,05,06,10,09,0.00
2007,05,06,10,10,0.20
2007,05,06,10,11,0.00
2007,05,06,10,12,0.10
2007,05,06,10,13,0.10
2007,05,06,10,14,0.00
2007,05,06,10,15,0.20
2007,05,06,10,16,0.80
2007,05,06,10,17,0.10
2007,05,06,10,18,0.80
2007,05,06,10,19,0.00
2007,05,06,10,20,0.00
2007,05,06,10,21,0.00
2007,05,06,10,22,2.70
2007,05,06,10,23,0.20
2007,05,06,10,24,1.80
2007,05,06,10,25,2.00
2007,05,06,10,26,1.70
2007,05,06,10,27,3.70
2007,05,06,10,28,0.60
2007,05,06,10,29,2.00
2007,05,06,10,30,3.10
2007,05,06,10,31,2.50
2007,05,06,10,32,3.20
2007,05,06,10,33,3.70
2007,05,06,10,34,1.40
2007,05,06,10,35,0.40
2007,05,06,10,36,0.10
2007,05,06,10,37,0.50
2007,05,06,10,38,0.00
2007,05,06,10,39,0.60
2007,05,06,10,40,1.10
2007,05,06,10,41,0.20
2007,05,06,10,42,0.80
2007,05,06,10,43,3.80
2007,05,06,10,44,1.70
2007,05,06,10,45,2.80
2007,05,06,10,46,2.30
2007,05,06,10,47,1.10
2007,05,06,10,48,1.70
2007,05,06,10,49,0.00
2007,05,06,10,50,0.10
2007,05,06,10,51,0.10
2007,05,06,10,52,0.00
2007,05,06,10,53,0.10
2007,05,06,10,54,0.00
2007,05,06,10,55,4.40
2007,05,06,10,56,2.40
2007,05,06,10,57,2.00
2007,05,06,10,58,3.00
2007,05,06,10,59,1.80
2007,05,06,11,00,4.00
2007,05,06,11,01,3.00
2007,05,06,11,02,4.50
2007,05,06,11,03,4.20
2007,05,06,11,04,6.00
2007,05,06,11,05,4.40
2007,05,06,11,06,6.50
2007,05,06,11,07,6.10
2007,05,06,11,08,8.60
2007,05,06,11,09,8.20
2007,05,06,11,10,6.50
2007,05,06,11,11,7.30
2007,05,06,11,12,4.80
2007,05,06,11,13,6.80
2007,05,06,11,14,7.00
2007,05,06,11,15,5.90
2007,05,06,11,16,7.70
2007,05,06,11,17,6.40
2007,05,06,11,18,7.80
2007,05,06,11,19,8.70
2007,05,06,11,20,5.80
2007,05,06,11,21,3.80
2007,05,06,11,22,5.20
2007,05,06,11,23,4.50
2007,05,06,11,24,4.60
2007,05,06,11,25,7.80
2007,05,06,11,26,6.80
2007,05,06,11,27,8.00
2007,05,06,11,28,8.20
2007,05,06,11,29,5.20
2007,05,06,11,30,5.00
2007,05,06,11,31,6.50
2007,05,06,11,32,5.60
2007,05,06,11,33,5.70
2007,05,06,11,34,5.60
2007,05,06,11,35,6.40
2007,05,06,11,36,2.60
2007,05,06,11,37,1.10
2007,05,06,11,38,3.80
2007,05,06,11,39,6.20
2007,05,06,11,40,7.60
2007,05,06,11,41,6.10
2007,05,06,11,42,4.80
2007,05,06,11,43,5.70
2007,05,06,11,44,7.10
2007,05,06,11,45,3.80
2007,05,06,11,46,5.90
2007,05,06,11,47,4.70
2007,05,06,11,48,4.60
2007,05,06,11,49,4.10
2007,05,06,11,50,8.30
2007,05,06,11,51,3.40
2007,05,06,11,52,7.10
2007,05,06,11,53,8.00
2007,05,06,11,54,6.20
2007,05,06,11,55,6.50
2007,05,06,11,56,4.50
2007,05,06,11,57,4.40
2007,05,06,11,58,3.40
2007,05,06,11,59,3.30
2007,05,06,12,00,4.30
2007,05,06,12,01,4.80
2007,05,06,12,02,2.90
2007,05,06,12,03,1.30
2007,05,06,12,04,2.70
2007,05,06,12,05,1.40
2007,05,06,12,06,3.80
2007,05,06,12,07,1.90
2007,05,06,12,08,0.00
2007,05,06,12,09,0.00
2007,05,06,12,10,0.10
2007,05,06,12,11,0.10
2007,05,06,12,12,0.00
2007,05,06,12,13,1.10
2007,05,06,12,14,0.20
2007,05,06,12,15,0.50
2007,05,06,12,16,0.10
2007,05,06,12,17,3.30
2007,05,06,12,18,0.10
2007,05,06,12,19,0.00
2007,05,06,12,20,1.10
2007,05,06,12,21,0.40
2007,05,06,12,22,2.30
2007,05,06,12,23,1.60
2007,05,06,12,24,0.60
2007,05,06,12,25,1.60
2007,05,06,12,26,2.80
2007,05,06,12,27,1.20
2007,05,06,12,28,0.70
2007,05,06,12,29,1.30
2007,05,06,12,30,4.30
2007,05,06,12,31,1.20
2007,05,06,12,32,0.80
2007,05,06,12,33,0.00
2007,05,06,12,34,0.40
2007,05,06,12,35,2.80
2007,05,06,12,36,0.80
2007,05,06,12,37,0.00
2007,05,06,12,38,2.60
2007,05,06,12,39,4.20
2007,05,06,12,40,4.10
2007,05,06,12,41,3.60
2007,05,06,12,42,1.30
2007,05,06,12,43,1.60
2007,05,06,12,44,3.10
2007,05,06,12,45,1.00
2007,05,06,12,46,1.20
2007,05,06,12,47,4.70
2007,05,06,12,48,4.30
2007,05,06,12,49,2.40
2007,05,06,12,50,1.00
2007,05,06,12,51,0.40
2007,05,06,12,52,0.00
2007,05,06,12,53,0.20
2007,05,06,12,54,0.90
2007,05,06,12,55,0.60
2007,05,06,12,56,0.70
2007,05,06,12,57,1.20
2007,05,06,12,58,0.10
2007,05,06,12,59,0.80
2007,05,06,13,00,0.00
2007,05,06,13,01,0.10
2007,05,06,13,02,0.00
2007,05,06,13,03,0.00
2007,05,06,13,04,1.90
2007,05,06,13,05,0.90
2007,05,06,13,06,0.10
2007,05,06,13,07,0.70
2007,05,06,13,08,0.20
2007,05,06,13,09,0.00
2007,05,06,13,10,0.00
2007,05,06,13,11,0.10
2007,05,06,13,12,3.10
2007,05,06,13,13,4.10
2007,05,06,13,14,4.50
2007,05,06,13,15,2.90
2007,05,06,13,16,3.40
2007,05,06,13,17,2.00
2007,05,06,13,18,2.50
2007,05,06,13,19,1.60
2007,05,06,13,20,2.90
2007,05,06,13,21,5.40
2007,05,06,13,22,2.60
2007,05,06,13,23,3.30
2007,05,06,13,24,1.20
2007,05,06,13,25,0.70
2007,05,06,13,26,0.60
2007,05,06,13,27,0.00
2007,05,06,13,28,0.10
2007,05,06,13,29,3.70
2007,05,06,13,30,1.90
2007,05,06,13,31,1.90
2007,05,06,13,32,2.20
2007,05,06,13,33,3.20
2007,05,06,13,34,2.60
2007,05,06,13,35,2.60
2007,05,06,13,36,2.30
2007,05,06,13,37,3.30
2007,05,06,13,38,2.20
2007,05,06,13,39,0.70
2007,05,06,13,40,0.00
2007,05,06,13,41,3.70
2007,05,06,13,42,0.70
2007,05,06,13,43,0.10
2007,05,06,13,44,1.50
2007,05,06,13,45,0.00
2007,05,06,13,46,0.10
2007,05,06,13,47,1.20
2007,05,06,13,48,1.20
2007,05,06,13,49,0.10
2007,05,06,13,50,0.10
2007,05,06,13,51,3.00
2007,05,06,13,52,1.30
2007,05,06,13,53,3.50
2007,05,06,13,54,3.90
2007,05,06,13,55,0.40
2007,05,06,13,56,3.40
2007,05,06,13,57,2.30
2007,05,06,13,58,0.20
2007,05,06,13,59,2.70
2007,05,06,14,00,3.10
2007,05,06,14,01,0.00
2007,05,06,14,02,0.00
2007,05,06,14,03,0.40
2007,05,06,14,04,3.20
2007,05,06,14,05,1.10
2007,05,06,14,06,1.00
2007,05,06,14,07,0.10
2007,05,06,14,08,0.20
2007,05,06,14,09,0.50
2007,05,06,14,10,0.00
2007,05,06,14,11,0.20
2007,05,06,14,12,0.10
2007,05,06,14,13,0.40
2007,05,06,14,14,2.50
2007,05,06,14,15,0.20
2007,05,06,14,16,0.10
2007,05,06,14,17,0.80
2007,05,06,14,18,0.10
2007,05,06,14,19,0.30
2007,05,06,14,20,0.40
2007,05,06,14,21,2.70
2007,05,06,14,22,4.80
2007,05,06,14,23,4.20
2007,05,06,14,24,2.50
2007,05,06,14,25,1.00
2007,05,06,14,26,1.70
2007,05,06,14,27,1.10
2007,05,06,14,28,3.70
2007,05,06,14,29,3.90
2007,05,06,14,30,2.50
2007,05,06,14,31,0.60
2007,05,06,14,32,1.90
2007,05,06,14,33,2.70
2007,05,06,14,34,1.90
2007,05,06,14,35,1.70
2007,05,06,14,36,0.10
2007,05,06,14,37,0.10
2007,05,06,14,38,0.40
2007,05,06,14,39,1.30
2007,05,06,14,40,0.80
2007,05,06,14,41,3.40
2007,05,06,14,42,4.40
2007,05,06,14,43,2.10
2007,05,06,14,44,3.50
2007,05,06,14,45,2.80
2007,05,06,14,46,3.30
2007,05,06,14,47,2.60
2007,05,06,14,48,1.60
2007,05,06,14,49,1.50
2007,05,06,14,50,1.70
2007,05,06,14,51,1.60
2007,05,06,14,52,1.10
2007,05,06,14,53,3.00
2007,05,06,14,54,3.40
2007,05,06,14,55,3.90
2007,05,06,14,56,3.70
2007,05,06,14,57,5.50
2007,05,06,14,58,4.60
2007,05,06,14,59,2.20
2007,05,06,15,00,5.50
2007,05,06,15,01,3.40
2007,05,06,15,02,1.40
2007,05,06,15,03,3.20
2007,05,06,15,04,1.30
2007,05,06,15,05,0.00
2007,05,06,15,06,0.40
2007,05,06,15,07,0.60
2007,05,06,15,08,1.00
2007,05,06,15,09,0.60
2007,05,06,15,10,0.10
2007,05,06,15,11,0.10
2007,05,06,15,12,0.00
2007,05,06,15,13,0.00
2007,05,06,15,14,0.00
2007,05,06,15,15,0.10
2007,05,06,15,16,0.20
2007,05,06,15,17,0.40
2007,05,06,15,18,0.60
2007,05,06,15,19,0.40
2007,05,06,15,20,0.10
2007,05,06,15,21,0.20
2007,05,06,15,22,1.20
2007,05,06,15,23,0.20
2007,05,06,15,24,0.50
2007,05,06,15,25,0.10
2007,05,06,15,26,0.90
2007,05,06,15,27,2.70
2007,05,06,15,28,2.50
2007,05,06,15,29,3.10
2007,05,06,15,30,1.90
2007,05,06,15,31,3.60
2007,05,06,15,32,0.50
2007,05,06,15,33,4.40
2007,05,06,15,34,3.50
2007,05,06,15,35,4.20
2007,05,06,15,36,3.30
2007,05,06,15,37,1.70
2007,05,06,15,38,1.60
2007,05,06,15,39,4.20
2007,05,06,15,40,7.00
2007,05,06,15,41,4.30
2007,05,06,15,42,8.70
2007,05,06,15,43,4.10
2007,05,06,15,44,2.00
2007,05,06,15,45,3.80
2007,05,06,15,46,4.40
2007,05,06,15,47,3.90
2007,05,06,15,48,3.90
2007,05,06,15,49,2.90
2007,05,06,15,50,1.30
2007,05,06,15,51,2.80
2007,05,06,15,52,2.80
2007,05,06,15,53,2.40
2007,05,06,15,54,2.10
2007,05,06,15,55,5.30
2007,05,06,15,56,1.40
2007,05,06,15,57,2.20
2007,05,06,15,58,4.10
2007,05,06,15,59,2.30
2007,05,06,16,00,4.70
2007,05,06,16,01,3.10
2007,05,06,16,02,3.00
2007,05,06,16,03,4.20
2007,05,06,16,04,5.90
2007,05,06,16,05,5.90
2007,05,06,16,06,1.10
2007,05,06,16,07,1.30
2007,05,06,16,08,8.20
2007,05,06,16,09,3.00
2007,05,06,16,10,4.40
2007,05,06,16,11,3.40
2007,05,06,16,12,4.60
2007,05,06,16,13,5.60
2007,05,06,16,14,3.80
2007,05,06,16,15,5.60
2007,05,06,16,16,2.00
2007,05,06,16,17,4.50
2007,05,06,16,18,2.20
2007,05,06,16,19,3.80
2007,05,06,16,20,1.20
2007,05,06,16,21,1.80
2007,05,06,16,22,4.30
2007,05,06,16,23,5.40
2007,05,06,16,24,4.50
2007,05,06,16,25,5.80
2007,05,06,16,26,5.40
2007,05,06,16,27,2.30
2007,05,06,16,28,2.90
2007,05,06,16,29,2.60
2007,05,06,16,30,2.70
2007,05,06,16,31,0.20
2007,05,06,16,32,1.90
2007,05,06,16,33,0.40
2007,05,06,16,34,3.80
2007,05,06,16,35,3.60
2007,05,06,16,36,4.50
2007,05,06,16,37,3.70
2007,05,06,16,38,3.80
2007,05,06,16,39,1.90
2007,05,06,16,40,2.20
2007,05,06,16,41,2.30
2007,05,06,16,42,2.90
2007,05,06,16,43,5.00
2007,05,06,16,44,3.80
2007,05,06,16,45,4.00
2007,05,06,16,46,1.20
2007,05,06,16,47,0.10
2007,05,06,16,48,2.80
2007,05,06,16,49,1.70
2007,05,06,16,50,3.30
2007,05,06,16,51,4.10
2007,05,06,16,52,1.40
2007,05,06,16,53,2.90
2007,05,06,16,54,1.60
2007,05,06,16,55,0.20
2007,05,06,16,56,3.20
2007,05,06,16,57,3.40
2007,05,06,16,58,0.20
2007,05,06,16,59,0.30
2007,05,06,17,00,0.80
2007,05,06,17,01,1.10
2007,05,06,17,02,4.20
2007,05,06,17,03,3.20
2007,05,06,17,04,6.70
2007,05,06,17,05,2.60
2007,05,06,17,06,2.90
2007,05,06,17,07,4.80
2007,05,06,17,08,2.50
2007,05,06,17,09,2.00
2007,05,06,17,10,1.70
2007,05,06,17,11,3.60
2007,05,06,17,12,1.90
2007,05,06,17,13,2.70
2007,05,06,17,14,0.40
2007,05,06,17,15,1.70
2007,05,06,17,16,0.10
2007,05,06,17,17,2.20
2007,05,06,17,18,1.50
2007,05,06,17,19,0.90
2007,05,06,17,20,0.10
2007,05,06,17,21,2.00
2007,05,06,17,22,3.00
2007,05,06,17,23,0.80
2007,05,06,17,24,0.80
2007,05,06,17,25,1.80
2007,05,06,17,26,3.40
2007,05,06,17,27,3.90
2007,05,06,17,28,0.10
2007,05,06,17,29,0.00
2007,05,06,17,30,0.70
2007,05,06,17,31,0.10
2007,05,06,17,32,0.00
2007,05,06,17,33,0.20
2007,05,06,17,34,1.60
2007,05,06,17,35,1.90
2007,05,06,17,36,3.50
2007,05,06,17,37,4.50
2007,05,06,17,38,1.70
2007,05,06,17,39,1.40
2007,05,06,17,40,0.50
2007,05,06,17,41,2.50
2007,05,06,17,42,3.50
2007,05,06,17,43,4.10
2007,05,06,17,44,4.40
2007,05,06,17,45,2.00
2007,05,06,17,46,0.00
2007,05,06,17,47,0.50
2007,05,06,17,48,5.50
2007,05,06,17,49,4.30
2007,05,06,17,50,3.10
2007,05,06,17,51,1.00
2007,05,06,17,52,0.50
2007,05,06,17,53,1.10
2007,05,06,17,54,1.50
2007,05,06,17,55,3.10
2007,05,06,17,56,5.10
2007,05,06,17,57,4.20
2007,05,06,17,58,2.20
2007,05,06,17,59,4.20
2007,05,06,18,00,6.00
2007,05,06,18,01,5.00
2007,05,06,18,02,0.40
2007,05,06,18,03,1.80
2007,05,06,18,04,4.70
2007,05,06,18,05,0.60
2007,05,06,18,06,6.90